Weather History for Quillayute, WA

Change the Weather History Date:

Wednesday, March 6, 2013

  Actual Average Record
Temperature  
Mean Temperature 41 °F 43 °F  
Max Temperature 48 °F 51 °F 69 °F (2001)
Min Temperature 33 °F 36 °F 24 °F (1999)
Degree Days  
Heating Degree Days 24 22  
Month to date heating degree days 133 132  
Since 1 July heating degree days 3826 3977  
Cooling Degree Days 0 0  
Month to date cooling degree days 0 0  
Year to date cooling degree days 0 0  
Moisture  
Dew Point 38 °F    
Average Humidity 83    
Maximum Humidity 89    
Minimum Humidity 76    
Precipitation  
Precipitation 0.09 in 0.36 in 1.50 in (1977)
Month to date precipitation 3.45 2.19  
Year to date precipitation 25.56 27.15  
Sea Level Pressure  
Sea Level Pressure 29.72 in    
Wind  
Wind Speed 1 mph (NE)    
Max Wind Speed 7 mph    
Max Gust Speed 12 mph    
Visibility 3 miles    
Events Fog , Rain    
T = Trace of Precipitation, MM = Missing Value Source: NWS Daily Summary

Daily Weather History Graph

Daily Weather History Graph

Search for Another Location

Airport:

Trip Planner

Search our weather history database for the weather conditions in past years. The results will help you decide how hot, cold, wet, or windy it might be!

Date:

Astronomy

Mar. 06, 2013 Rise Set
Actual Time 6:48 AM PST 6:10 PM PST
Civil Twilight 6:17 AM PST 6:41 PM PST
Nautical Twilight 5:41 AM PST 7:17 PM PST
Astronomical Twilight 5:05 AM PST 7:54 PM PST
Moon 3:21 AM PST (3/6) 12:40 PM PST (3/6)
Length of Visible Light 12h 24m
Length of Day
11h 22m
Waning Crescent, 29% of the Moon is Illuminated
Mar 6
Waning Crescent
Mar 11
New
Mar 19
First Quarter
Mar 27
Full
Apr 2
Last Quarter

Hourly Weather History & Observations

Time (PST) Temp. Windchill Dew Point Humidity Pressure Visibility Wind Dir Wind Speed Gust Speed Precip Events Conditions
12:06 AM 33.8 °F 30.8 °F 30.2 °F 87% 29.71 in 0.2 mi SSE 3.5 mph - N/A Fog Fog
12:15 AM 33.8 °F - 30.2 °F 87% 29.70 in 0.2 mi Calm Calm - N/A Fog Fog
12:45 AM 33.8 °F - 30.2 °F 87% 29.70 in 0.5 mi Calm Calm - N/A Fog Fog
12:53 AM 33.1 °F - 30.9 °F 92% 29.70 in 0.5 mi Calm Calm - N/A Fog Fog
1:05 AM 33.8 °F - 30.2 °F 87% 29.69 in 1.5 mi Calm Calm - N/A   Overcast
1:09 AM 33.8 °F - 30.2 °F 87% 29.69 in 3.0 mi Calm Calm - N/A   Overcast
1:53 AM 36.0 °F - 33.1 °F 89% 29.68 in 4.0 mi Calm Calm - N/A   Overcast
2:53 AM 39.0 °F - 36.0 °F 89% 29.67 in 5.0 mi Calm Calm - N/A   Overcast
3:53 AM 41.0 °F 39.0 °F 37.0 °F 86% 29.64 in 6.0 mi North 3.5 mph - N/A   Overcast
4:53 AM 42.1 °F 39.2 °F 37.0 °F 82% 29.62 in 6.0 mi NNE 4.6 mph - N/A   Haze
5:53 AM 42.1 °F 38.4 °F 37.0 °F 82% 29.62 in 5.0 mi North 5.8 mph - N/A   Haze
6:53 AM 42.1 °F 39.2 °F 37.0 °F 82% 29.60 in 5.0 mi North 4.6 mph - N/A   Haze
7:53 AM 43.0 °F - 37.9 °F 82% 29.60 in 4.0 mi Calm Calm - N/A   Haze
8:53 AM 44.1 °F - 39.0 °F 82% 29.61 in 3.0 mi Calm Calm - 0.00 in Rain Light Rain
9:53 AM 45.0 °F - 39.0 °F 80% 29.62 in 3.0 mi Calm Calm - 0.00 in Rain Light Rain
10:17 AM 44.6 °F - 41.0 °F 87% 29.62 in 2.5 mi Calm Calm - 0.00 in Rain Light Rain
10:43 AM 46.4 °F - 41.0 °F 81% 29.63 in 3.0 mi Calm Calm - N/A Rain Light Rain
10:53 AM 45.0 °F - 39.9 °F 82% 29.64 in 2.5 mi Calm Calm - 0.00 in Rain Light Rain
11:01 AM 44.6 °F - 41.0 °F 87% 29.64 in 3.0 mi Calm Calm - 0.01 in Rain Light Rain
11:19 AM 46.4 °F 45.2 °F 39.2 °F 76% 29.64 in 2.5 mi ESE 3.5 mph - 0.01 in Rain Light Rain
11:28 AM 46.4 °F - 39.2 °F 76% 29.64 in 3.0 mi Calm Calm - 0.01 in Rain Light Rain
11:40 AM 46.4 °F - 39.2 °F 76% 29.64 in 4.0 mi Calm Calm - 0.01 in Rain Light Rain
11:53 AM 46.9 °F - 41.0 °F 80% 29.65 in 4.0 mi Calm Calm - 0.01 in   Haze
12:01 PM 46.4 °F - 39.2 °F 76% 29.65 in 4.0 mi Calm Calm - 0.00 in Rain Light Rain
12:12 PM 46.4 °F - 39.2 °F 76% 29.65 in 4.0 mi Calm Calm - 0.00 in Rain Light Rain
12:43 PM 46.4 °F - 39.2 °F 76% 29.66 in 5.0 mi Calm Calm - 0.00 in   Haze
12:53 PM 46.9 °F - 39.9 °F 77% 29.66 in 5.0 mi Calm Calm - 0.00 in   Haze
1:53 PM 46.9 °F - 39.9 °F 77% 29.68 in 3.0 mi NE 3.5 mph - 0.00 in Rain Light Rain
2:13 PM 46.4 °F 45.2 °F 39.2 °F 76% 29.68 in 3.0 mi ENE 3.5 mph - 0.00 in Rain Light Rain
2:23 PM 46.4 °F 45.2 °F 39.2 °F 76% 29.68 in 3.0 mi NE 3.5 mph - 0.00 in Rain Light Rain
2:33 PM 46.4 °F 45.2 °F 39.2 °F 76% 29.68 in 2.5 mi East 3.5 mph - 0.00 in Rain Light Rain
2:41 PM 46.4 °F - 41.0 °F 81% 29.69 in 2.5 mi Calm Calm - 0.00 in Rain Light Rain
2:48 PM 46.4 °F - 41.0 °F 81% 29.69 in 2.0 mi Calm Calm - 0.00 in Rain Light Rain
2:53 PM 46.0 °F 44.8 °F 39.9 °F 79% 29.70 in 2.0 mi ENE 3.5 mph - 0.01 in Rain Light Rain
3:00 PM 46.4 °F 44.3 °F 39.2 °F 76% 29.69 in 2.0 mi ENE 4.6 mph - 0.00 in Rain Light Rain
3:49 PM 46.4 °F - 41.0 °F 81% 29.71 in 1.8 mi Calm Calm - 0.01 in Rain Light Rain
3:53 PM 46.0 °F 44.8 °F 41.0 °F 83% 29.72 in 1.8 mi North 3.5 mph - 0.01 in Rain Light Rain
4:01 PM 46.4 °F 45.2 °F 39.2 °F 76% 29.72 in 2.0 mi North 3.5 mph - 0.00 in Rain Light Rain
4:10 PM 46.4 °F 45.2 °F 41.0 °F 81% 29.72 in 2.0 mi NNW 3.5 mph - 0.00 in Rain Light Rain
4:45 PM 46.4 °F - 41.0 °F 81% 29.73 in 1.8 mi Calm Calm - 0.01 in Rain Light Rain
4:53 PM 45.0 °F - 41.0 °F 86% 29.74 in 2.0 mi Calm Calm - 0.01 in Rain Light Rain
5:40 PM 44.6 °F 43.1 °F 39.2 °F 81% 29.75 in 1.8 mi North 3.5 mph - 0.02 in Rain Light Rain
5:53 PM 45.0 °F - 39.9 °F 82% 29.76 in 2.0 mi Calm Calm - 0.03 in Rain Light Rain
6:04 PM 44.6 °F - 39.2 °F 81% 29.75 in 2.5 mi Calm Calm - 0.01 in Rain Light Rain
6:21 PM 44.6 °F 43.1 °F 39.2 °F 81% 29.76 in 4.0 mi East 3.5 mph - 0.01 in Rain Light Rain
6:53 PM 44.1 °F - 39.9 °F 85% 29.78 in 4.0 mi Calm Calm - 0.01 in Rain Light Rain
7:18 PM 44.6 °F - 39.2 °F 81% 29.78 in 1.8 mi Calm Calm - 0.01 in   Overcast
7:30 PM 44.6 °F - 39.2 °F 81% 29.78 in 3.0 mi Calm Calm - 0.01 in   Overcast
7:53 PM 43.0 °F - 39.9 °F 89% 29.80 in 4.0 mi Calm Calm - 0.01 in   Overcast
8:07 PM 42.8 °F - 39.2 °F 87% 29.80 in 1.8 mi Calm Calm - N/A   Overcast
8:13 PM 42.8 °F - 39.2 °F 87% 29.80 in 0.8 mi Calm Calm - N/A   Overcast
8:25 PM 42.8 °F - 39.2 °F 87% 29.81 in 0.2 mi Calm Calm - N/A Fog Fog
8:36 PM 42.8 °F - 37.4 °F 81% 29.81 in 0.5 mi Calm Calm - N/A Fog Fog
8:53 PM 41.0 °F - 37.9 °F 89% 29.82 in 0.8 mi Calm Calm - N/A   Overcast
9:01 PM 42.8 °F - 37.4 °F 81% 29.82 in 1.8 mi Calm Calm - N/A   Overcast
9:04 PM 42.8 °F 41.1 °F 37.4 °F 81% 29.82 in 3.0 mi ENE 3.5 mph - N/A   Overcast
9:32 PM 42.8 °F 41.1 °F 37.4 °F 81% 29.84 in 6.0 mi East 3.5 mph - N/A   Overcast
9:53 PM 42.1 °F - 37.9 °F 85% 29.85 in 6.0 mi Calm Calm - N/A   Overcast
10:08 PM 42.8 °F - 37.4 °F 81% 29.85 in 7.0 mi Calm Calm - N/A   Overcast
10:22 PM 42.8 °F - 37.4 °F 81% 29.85 in 7.0 mi Calm Calm - N/A   Overcast
10:29 PM 42.8 °F - 37.4 °F 81% 29.86 in 7.0 mi Calm Calm - N/A   Overcast
10:43 PM 42.8 °F - 37.4 °F 81% 29.86 in 6.0 mi Calm Calm - N/A   Overcast
10:53 PM 42.1 °F 40.2 °F 37.9 °F 85% 29.86 in 6.0 mi East 3.5 mph - N/A   Overcast
11:04 PM 42.8 °F 41.1 °F 37.4 °F 81% 29.86 in 7.0 mi East 3.5 mph - N/A   Overcast
11:14 PM 42.8 °F - 37.4 °F 81% 29.86 in 6.0 mi Calm Calm - N/A   Overcast
11:53 PM 42.1 °F - 37.9 °F 85% 29.88 in 6.0 mi Calm Calm - N/A   Overcast